sat.trackr.live / text

‹ back to catalog

LOPEN

NORAD 60473 · 2024-149F

PAYLOAD ACTIVE UNKNOWN

§ Identity

Operator
Country
US
Launch date
2024-08-16
Launch site
AFWTR
Launch vehicle
Mass (kg)
RCS (m²)

External: N2YO · Heavens-Above · Gunter

§ Orbital elements

Epoch: 2026-05-25T04:24:06.097824Z

Period
93.57 min
Inclination
97.3777°
Eccentricity
0.0001270
Mean motion
15.38926618 rev/d
Perigee alt
448.4 km
Apogee alt
450.1 km
Semi-major
6,827.4 km
B*
4.0187e-4
RAAN
228.3843°
Arg perigee
51.7092°
Mean anomaly
308.4267°
Rev number
9,872

§ Raw data

LOPEN1 60473U 24149F   26145.18340391  .00015410  00000+0  40187-3 0  99902 60473  97.3777 228.3843 0001270  51.7092 308.4267 15.38926618 98721

JSON: /api/v1/satellites/60473 · /tle

For live sub-satellite position, see the globe view (requires WebGL).

§ Visibility from observer

Set your observer location to see the next 7 days of passes ≥ 10°. The values pass through the URL so the page stays shareable.

No JS? Fill the form by hand. The geolocation button needs JavaScript.